EW8360 Weather Reports


time (UTC)temp
F
wind
direction
speed
knots
gust
knots
rain 1hr
in
rain 24hr
in
rain mn
in
humidity
%
barometer
mb
20260905015029 70 301 4.3 6.1 0.00 0.00 0.00 79 1010.9
20260905014527 70 283 1.7 7.0 0.00 0.00 0.00 79 1010.9
20260905014027 71 268 1.7 7.0 0.00 0.00 0.00 78 1010.8
20260905013749 71 282 2.6 7.0 0.00 0.00 0.00 78 1010.7
20260905013028 71 300 1.7 7.0 0.00 0.00 0.00 77 1010.7
20260905012745 71 23 4.3 7.0 0.00 0.00 0.00 76 1010.6
20260905012027 72 315 0.9 7.0 0.00 0.00 0.00 76 1010.7
20260905011528 72 285 1.7 7.0 0.00 0.00 0.00 75 1010.7
20260905011027 72 273 1.7 7.0 0.00 0.00 0.00 75 1010.8
20260905010527 73 288 4.3 6.1 0.00 0.00 0.00 75 1010.8
20260905010027 73 256 0.9 5.2 0.00 0.00 0.00 73 1010.8
20260905005746 73 255 0.9 7.0 0.00 0.00 0.00 74 1010.8
20260905005028 73 263 2.6 7.0 0.00 0.00 0.00 73 1010.7
20260905004527 73 253 2.6 7.0 0.00 0.00 0.00 72 1010.7
20260905004026 73 282 1.7 7.0 0.00 0.00 0.00 72 1010.7
20260905003527 73 328 2.6 6.1 0.00 0.00 0.00 73 1010.8
20260905003027 73 351 2.6 6.1 0.00 0.00 0.00 70 1010.8
20260905002749 73 323 1.7 6.1 0.00 0.00 0.00 72 1010.9
20260905002026 74 336 1.7 6.1 0.00 0.00 0.00 71 1010.7
20260905001526 74 268 2.6 7.0 0.00 0.00 0.00 71 1010.8
20260905001027 74 242 0.9 7.0 0.00 0.00 0.00 70 1010.8
20260905000528 74 304 2.6 6.1 0.00 0.00 0.00 69 1010.8
20260905000026 73 326 2.6 7.0 0.00 0.00 0.00 69 1010.9
20260904235525 73 186 1.7 7.0 0.00 0.00 0.00 69 1010.9
20260904235026 73 7 4.3 6.1 0.00 0.00 0.00 67 1010.9
20260904234527 73 287 1.7 6.1 0.00 0.00 0.00 68 1010.9
20260904234026 73 316 4.3 6.1 0.00 0.00 0.00 68 1011.0
20260904233526 73 302 2.6 7.8 0.00 0.00 0.00 68 1011.0
20260904233027 73 265 1.7 7.8 0.00 0.00 0.00 68 1011.0
20260904232528 73 259 2.6 7.8 0.00 0.00 0.00 67 1010.9
20260904232025 74 227 6.1 7.8 0.00 0.00 0.00 67 1010.9
20260904231525 74 269 2.6 11.3 0.00 0.00 0.00 68 1010.8
20260904231027 74 346 4.3 11.3 0.00 0.00 0.00 67 1011.0
20260904230754 74 315 6.1 10.4 0.00 0.00 0.00 67 1010.9
20260904230026 74 309 3.5 10.4 0.00 0.00 0.00 69 1011.1
20260904225753 74 265 0.9 7.8 0.00 0.00 0.00 65 1011.2
20260904225250 73 265 0.9 7.8 0.00 0.00 0.00 65 1011.1
20260904224245 73 286 2.6 10.4 0.00 0.00 0.00 67 1011.2
20260904223525 74 20 4.3 10.4 0.00 0.00 0.00 67 1011.2
20260904223024 74 267 2.6 10.4 0.00 0.00 0.00 68 1011.3
20260904222525 74 326 4.3 8.7 0.00 0.00 0.00 67 1011.3
20260904222025 74 345 5.2 8.7 0.00 0.00 0.00 68 1011.3
20260904221524 74 340 6.1 8.7 0.00 0.00 0.00 68 1011.5
20260904221024 74 324 5.2 10.4 0.00 0.00 0.00 66 1011.5
20260904220525 74 252 1.7 10.4 0.00 0.00 0.00 66 1011.5
20260904220024 74 313 3.5 7.8 0.00 0.00 0.00 67 1011.5
20260904215524 74 344 3.5 11.3 0.00 0.00 0.00 67 1011.6
20260904215024 74 352 8.7 11.3 0.00 0.00 0.00 67 1011.6
20260904214524 74 292 4.3 11.3 0.00 0.00 0.00 66 1011.6
20260904214024 74 334 4.3 11.3 0.00 0.00 0.00 67 1011.6
20260904213523 74 274 5.2 10.4 0.00 0.00 0.00 67 1011.6
20260904213241 74 356 3.5 10.4 0.00 0.00 0.00 66 1011.6
20260904212800 74 296 3.5 7.8 0.00 0.00 0.00 64 1011.5
20260904212023 74 241 2.6 7.8 0.00 0.00 0.00 67 1011.6
20260904211745 74 287 3.5 8.7 0.00 0.00 0.00 65 1011.6
20260904211023 74 262 4.3 8.7 0.00 0.00 0.00 67 1011.6
20260904210024 74 314 7.8 13.9 0.00 0.00 0.00 69 1011.5
20260904205522 74 4 3.5 12.2 0.00 0.00 0.00 67 1011.6
20260904205024 74 325 7.8 12.2 0.00 0.00 0.00 69 1011.7
20260904204747 74 263 3.5 13.0 0.00 0.00 0.00 65 1011.7
20260904204024 74 239 5.2 13.0 0.00 0.00 0.00 68 1011.8
20260904203523 74 282 6.1 8.7 0.00 0.00 0.00 66 1011.8
20260904203023 74 218 2.6 7.8 0.00 0.00 0.00 67 1011.7
20260904202750 74 341 4.3 7.8 0.00 0.00 0.00 67 1011.7
20260904202019 74 309 4.3 10.4 0.00 0.00 0.00 66 1011.8
20260904201748 74 306 6.1 10.4 0.00 0.00 0.00 67 1011.8
20260904201022 74 335 5.2 13.9 0.00 0.00 0.00 69 1011.7
20260904200022 75 307 11.3 13.9 0.00 0.00 0.00 67 1011.7
20260904195522 75 305 4.3 7.0 0.00 0.00 0.00 65 1011.7
20260904195022 75 319 3.5 11.3 0.00 0.00 0.00 64 1011.9
20260904194524 75 253 3.5 11.3 0.00 0.00 0.00 65 1011.9
20260904194023 75 310 4.3 7.8 0.00 0.00 0.00 65 1012.0
20260904193746 75 3 5.2 7.8 0.00 0.00 0.00 65 1012.0
20260904193020 75 355 6.1 7.0 0.00 0.00 0.00 64 1012.0
20260904192520 75 267 2.6 7.0 0.00 0.00 0.00 63 1012.2
20260904192021 74 278 1.7 8.7 0.00 0.00 0.00 65 1012.2
20260904191521 74 293 4.3 8.7 0.00 0.00 0.00 65 1012.1
20260904191020 74 257 2.6 7.0 0.00 0.00 0.00 64 1012.1
20260904190520 74 279 4.3 6.1 0.00 0.00 0.00 63 1012.2
20260904190022 73 247 1.7 6.1 0.00 0.00 0.00 65 1012.3
20260904185521 73 288 3.5 7.0 0.00 0.00 0.00 65 1012.4
20260904185020 73 260 2.6 8.7 0.00 0.00 0.00 67 1012.4
20260904184520 73 337 3.5 11.3 0.00 0.00 0.00 68 1012.5
20260904184021 73 271 2.6 11.3 0.00 0.00 0.00 66 1012.6
20260904183520 73 317 6.1 13.0 0.00 0.00 0.00 70 1012.6
20260904183020 73 248 5.2 13.0 0.00 0.00 0.00 68 1012.6
20260904182750 73 333 5.2 8.7 0.00 0.00 0.00 68 1012.5
20260904182021 73 348 4.3 8.7 0.00 0.00 0.00 70 1012.5
20260904181742 73 341 3.5 8.7 0.00 0.00 0.00 69 1012.5
20260904181027 73 241 1.7 7.0 0.00 0.00 0.00 69 1012.7
20260904180739 73 350 3.5 8.7 0.00 0.00 0.00 68 1012.5
20260904180020 73 330 5.2 8.7 0.00 0.00 0.00 70 1012.5
20260904175519 73 299 4.3 11.3 0.00 0.00 0.00 70 1012.5
20260904175018 73 263 3.5 11.3 0.00 0.00 0.00 72 1012.6
20260904174519 73 344 7.0 7.8 0.00 0.00 0.00 70 1012.5
20260904174025 73 313 3.5 7.0 0.00 0.00 0.00 70 1012.5
20260904173520 73 264 3.5 7.0 0.00 0.00 0.00 68 1012.5
20260904173241 73 279 1.7 7.0 0.00 0.00 0.00 68 1012.5
20260904172519 73 265 2.6 7.0 0.00 0.00 0.00 68 1012.5
20260904172022 73 322 3.5 7.0 0.00 0.00 0.00 67 1012.6
20260904171521 73 264 3.5 7.0 0.00 0.00 0.00 67 1012.6
20260904171019 73 244 2.6 5.2 0.00 0.00 0.00 64 1012.6
20260904170522 73 229 2.6 5.2 0.00 0.00 0.00 64 1012.5
20260904170020 72 243 0.9 7.0 0.00 0.00 0.00 63 1012.5
20260904165520 72 231 0.9 7.0 0.00 0.00 0.00 66 1012.6
20260904165018 72 273 1.7 7.0 0.00 0.00 0.00 66 1012.4
20260904164020 72 259 2.6 6.1 0.00 0.00 0.00 66 1012.5
20260904163521 72 203 1.7 6.1 0.00 0.00 0.00 68 1012.3
20260904163017 71 311 1.7 5.2 0.00 0.00 0.00 67 1012.2
20260904162738 71 312 0.9 4.3 0.00 0.00 0.00 67 1012.3
20260904162016 71 312 1.7 4.3 0.00 0.00 0.00 68 1012.2
20260904161517 71 314 0.0 4.3 0.00 0.00 0.00 65 1012.3
20260904161018 70 312 0.0 4.3 0.00 0.00 0.00 69 1012.2
20260904160523 70 314 0.9 2.6 0.00 0.00 0.00 69 1012.2
20260904160019 69 314 2.6 2.6 0.00 0.00 0.00 70 1012.1
20260904155519 69 314 0.9 2.6 0.00 0.00 0.00 71 1012.1
20260904155018 69 314 0.9 1.7 0.00 0.00 0.00 71 1012.1
20260904154517 69 313 0.9 2.6 0.00 0.00 0.00 71 1012.2
20260904154238 69 313 1.7 4.3 0.00 0.00 0.00 73 1012.1
20260904153739 69 313 3.5 4.3 0.00 0.00 0.00 74 1012.1
20260904153017 69 313 1.7 2.6 0.00 0.00 0.00 75 1012.0
20260904152516 68 313 1.7 2.6 0.00 0.00 0.00 74 1012.0
20260904152016 68 313 0.9 2.6 0.00 0.00 0.00 75 1012.0
20260904151517 68 313 0.0 1.7 0.00 0.00 0.00 74 1011.9
20260904151017 68 313 1.7 1.7 0.00 0.00 0.00 75 1011.9
20260904150518 67 313 0.0 2.6 0.00 0.00 0.00 73 1011.9
20260904150019 67 313 0.0 2.6 0.00 0.00 0.00 76 1011.9
20260904145515 67 224 0.0 1.7 0.00 0.00 0.00 73 1011.8
20260904145014 67 285 0.0 2.6 0.00 0.00 0.00 76 1011.9
20260904144514 67 315 0.9 2.6 0.00 0.00 0.00 77 1011.8
20260904144014 67 353 0.0 1.7 0.00 0.00 0.00 77 1011.7
20260904143514 67 292 0.0 2.6 0.00 0.00 0.00 76 1011.7
20260904143015 66 28 0.9 4.3 0.00 0.00 0.00 77 1011.7
20260904142736 66 339 0.9 4.3 0.00 0.00 0.00 78 1011.7
20260904142013 66 348 0.0 1.7 0.00 0.00 0.00 76 1011.7
20260904141740 66 230 0.9 2.6 0.00 0.00 0.00 76 1011.6
20260904141016 65 190 1.7 2.6 0.00 0.00 0.00 78 1011.6
20260904140513 65 309 0.0 2.6 0.00 0.00 0.00 79 1011.5
20260904140012 65 259 0.0 2.6 0.00 0.00 0.00 79 1011.6
20260904135513 65 285 0.9 2.6 0.00 0.00 0.00 80 1011.5
20260904135013 65 98 2.6 2.6 0.00 0.00 0.00 80 1011.5
20260904134512 65 215 0.0 1.7 0.00 0.00 0.00 80 1011.5
20260904134019 65 218 0.9 1.7 0.00 0.00 0.00 79 1011.5
20260904133236 65 205 0.0 0.0 0.00 0.00 0.00 79 1011.4
20260904132511 65 232 0.0 0.0 0.00 0.00 0.00 79 1011.3
20260904132012 65 233 0.0 0.0 0.00 0.00 0.00 79 1011.3
20260904131511 65 265 0.0 0.0 0.00 0.00 0.00 79 1011.3
20260904131233 65 297 0.0 0.0 0.00 0.00 0.00 79 1011.1
20260904130512 65 289 0.0 0.0 0.00 0.00 0.00 79 1011.1
20260904130011 65 234 0.0 0.0 0.00 0.00 0.00 79 1011.1
20260904125510 65 222 0.0 0.0 0.00 0.00 0.00 79 1011.0
20260904125012 65 249 0.0 0.0 0.00 0.00 0.00 80 1011.1
20260904124732 65 246 0.0 0.0 0.00 0.00 0.00 80 1011.1
20260904124007 65 239 0.0 0.9 0.00 0.00 0.00 80 1011.1
20260904123510 65 241 0.0 1.7 0.00 0.00 0.00 80 1011.0
20260904123011 65 228 0.9 1.7 0.00 0.00 0.00 80 1011.0
20260904122511 65 230 0.0 0.9 0.00 0.00 0.00 80 1011.0
20260904122010 65 246 0.0 1.7 0.00 0.00 0.00 80 1010.9
20260904121506 65 251 0.0 1.7 0.00 0.00 0.00 80 1010.9
20260904121011 65 228 0.0 0.0 0.00 0.00 0.00 79 1010.9
20260904120511 65 243 0.0 1.7 0.00 0.00 0.00 80 1010.9
20260904120011 65 247 0.0 1.7 0.00 0.00 0.00 80 1011.0
20260904115510 65 258 0.0 0.0 0.00 0.00 0.00 80 1011.2
20260904115010 65 253 0.0 0.9 0.00 0.00 0.00 80 1011.1
20260904114512 65 284 0.0 2.6 0.00 0.00 0.00 79 1011.1
20260904114010 65 327 0.9 2.6 0.00 0.00 0.00 79 1011.0
20260904113509 65 291 0.0 0.0 0.00 0.00 0.00 80 1011.1
20260904113010 65 259 0.0 0.0 0.00 0.00 0.00 81 1011.2
20260904112510 65 258 0.0 0.0 0.00 0.00 0.00 81 1011.2
20260904112009 66 260 0.0 0.0 0.00 0.00 0.00 80 1011.1
20260904111509 66 247 0.0 0.0 0.00 0.00 0.00 80 1011.2
20260904111009 66 251 0.0 0.9 0.00 0.00 0.00 80 1011.2
20260904110509 66 263 0.0 1.7 0.00 0.00 0.00 81 1011.2
20260904110009 66 248 0.0 2.6 0.00 0.00 0.00 81 1011.1
20260904105508 66 261 0.9 2.6 0.00 0.00 0.00 81 1011.2
20260904105009 66 259 0.0 0.0 0.00 0.00 0.00 82 1011.1
20260904104512 66 275 0.0 0.0 0.00 0.00 0.00 82 1011.0
20260904104008 66 258 0.0 0.0 0.00 0.00 0.00 82 1011.1
20260904103732 66 251 0.0 0.0 0.00 0.00 0.00 82 1011.1
20260904103010 66 251 0.0 1.7 0.00 0.00 0.00 82 1011.0
20260904102509 66 264 0.0 1.7 0.00 0.00 0.00 82 1011.1
20260904102007 66 261 0.0 0.0 0.00 0.00 0.00 82 1011.0
20260904101508 66 260 0.0 0.0 0.00 0.00 0.00 82 1011.0
20260904101007 66 257 0.0 0.0 0.00 0.00 0.00 82 1010.9
20260904100506 66 257 0.0 0.0 0.00 0.00 0.00 82 1011.0
20260904100036 65 249 0.0 0.0 0.00 0.00 0.00 82 1011.0
20260904095537 65 281 0.0 0.0 0.00 0.00 0.00 82 1011.0
20260904095037 65 264 0.0 0.0 0.00 0.00 0.00 82 1010.9
20260904094538 65 281 0.0 0.0 0.00 0.00 0.00 82 1010.9
20260904094036 65 268 0.0 0.0 0.00 0.00 0.00 82 1011.0
20260904093536 65 289 0.0 0.0 0.00 0.00 0.00 83 1010.9
20260904093035 65 267 0.0 0.0 0.00 0.00 0.00 83 1010.9
20260904092537 65 261 0.0 0.0 0.00 0.00 0.00 83 1011.0
20260904092255 65 268 0.0 0.0 0.00 0.00 0.00 82 1011.0
20260904091536 65 301 0.0 0.0 0.00 0.00 0.00 83 1011.0
20260904091254 65 281 0.0 0.0 0.00 0.00 0.00 83 1010.9
20260904090537 65 264 0.0 0.0 0.00 0.00 0.00 83 1011.0
20260904090037 65 254 0.0 0.0 0.00 0.00 0.00 83 1011.0
20260904085751 65 253 0.0 0.0 0.00 0.00 0.00 83 1011.0
20260904085035 65 251 0.0 0.0 0.00 0.00 0.00 84 1011.0
20260904084537 65 253 0.0 0.0 0.00 0.00 0.00 84 1011.0
20260904084036 65 260 0.0 0.0 0.00 0.00 0.00 84 1011.1
20260904083535 65 266 0.0 0.0 0.00 0.00 0.00 84 1011.2
20260904083034 65 252 0.0 0.0 0.00 0.00 0.00 85 1011.1
20260904082805 65 255 0.0 0.0 0.00 0.00 0.00 85 1011.1
20260904082257 65 271 0.0 0.0 0.00 0.00 0.00 85 1011.2
20260904081535 65 258 0.0 0.0 0.00 0.00 0.00 86 1011.2
20260904081034 65 256 0.0 0.0 0.00 0.00 0.00 86 1011.2
20260904080536 65 256 0.0 0.0 0.00 0.00 0.00 86 1011.3
20260904080035 65 255 0.0 0.0 0.00 0.00 0.00 86 1011.3
20260904075534 65 246 0.0 0.0 0.00 0.00 0.00 86 1011.4
20260904075033 65 245 0.0 0.0 0.00 0.00 0.00 86 1011.3
20260904074535 65 245 0.0 0.0 0.00 0.00 0.00 86 1011.4
20260904074035 65 248 0.0 0.0 0.00 0.00 0.00 87 1011.4
20260904073533 65 265 0.0 0.0 0.00 0.00 0.00 86 1011.4
20260904073034 65 259 0.0 0.0 0.00 0.00 0.00 86 1011.4
20260904072535 65 259 0.0 0.0 0.00 0.00 0.00 86 1011.4
20260904072035 65 259 0.0 0.0 0.00 0.00 0.00 86 1011.4
20260904071533 65 259 0.0 0.0 0.00 0.00 0.00 85 1011.4
20260904071033 65 260 0.0 0.0 0.00 0.00 0.00 85 1011.4
20260904070750 65 269 0.0 0.9 0.00 0.00 0.00 85 1011.4
20260904070035 65 258 0.0 1.7 0.00 0.00 0.00 85 1011.4
20260904065532 65 259 0.0 1.7 0.00 0.00 0.00 85 1011.4
20260904065254 65 256 0.0 2.6 0.00 0.00 0.00 85 1011.4
20260904064533 65 276 0.9 2.6 0.00 0.00 0.00 85 1011.4
20260904064033 65 301 2.6 4.3 0.00 0.00 0.00 85 1011.3
20260904063532 65 280 3.5 4.3 0.00 0.00 0.00 85 1011.4
20260904063032 65 273 1.7 4.3 0.00 0.00 0.00 84 1011.3
20260904062532 65 283 2.6 4.3 0.00 0.00 0.00 84 1011.4
20260904062252 65 271 1.7 4.3 0.00 0.00 0.00 84 1011.3
20260904061532 65 277 1.7 4.3 0.00 0.00 0.00 84 1011.3
20260904061032 65 293 1.7 2.6 0.00 0.00 0.00 84 1011.3
20260904060533 65 290 0.9 4.3 0.00 0.00 0.00 84 1011.4
20260904060033 66 297 2.6 4.3 0.00 0.00 0.00 84 1011.5
20260904055750 66 276 1.7 4.3 0.00 0.00 0.00 84 1011.3
20260904055031 66 256 1.7 4.3 0.00 0.00 0.00 84 1011.4
20260904054531 66 296 2.6 4.3 0.00 0.00 0.00 84 1011.4
20260904054033 66 275 0.9 5.2 0.00 0.00 0.00 84 1011.3
20260904053532 66 289 3.5 5.2 0.00 0.00 0.00 84 1011.2
20260904053031 66 274 0.9 4.3 0.00 0.00 0.00 84 1011.3
20260904052031 66 277 0.0 4.3 0.00 0.00 0.00 84 1011.4
20260904051531 66 263 1.7 4.3 0.00 0.00 0.00 84 1011.4
20260904051031 66 291 1.7 4.3 0.00 0.00 0.00 84 1011.4
20260904050530 66 281 2.6 4.3 0.00 0.00 0.00 83 1011.3
20260904050032 66 316 3.5 4.3 0.00 0.00 0.00 83 1011.2
20260904045532 66 285 2.6 5.2 0.00 0.00 0.00 83 1011.3
20260904045030 66 269 1.7 5.2 0.00 0.00 0.00 83 1011.3
20260904044530 66 320 3.5 5.2 0.00 0.00 0.00 83 1011.3
20260904044031 66 272 2.6 5.2 0.00 0.00 0.00 83 1011.3
20260904043531 67 274 3.5 5.2 0.00 0.00 0.00 82 1011.3
20260904043029 67 328 3.5 5.2 0.00 0.00 0.00 82 1011.4
20260904042529 67 283 1.7 6.1 0.00 0.00 0.00 82 1011.4
20260904042247 67 319 4.3 7.0 0.00 0.00 0.00 82 1011.3
20260904041531 67 354 4.3 7.0 0.00 0.00 0.00 82 1011.3
20260904041029 67 343 5.2 7.0 0.00 0.00 0.00 82 1011.4
20260904040529 67 322 4.3 6.1 0.00 0.00 0.00 82 1011.2
20260904040029 67 316 6.1 6.1 0.00 0.00 0.00 82 1011.2
20260904035529 67 346 2.6 6.1 0.00 0.00 0.00 82 1011.2
20260904035029 67 264 1.7 5.2 0.00 0.00 0.00 82 1011.1
20260904034529 67 313 3.5 6.1 0.00 0.00 0.00 82 1011.1
20260904034029 67 328 2.6 6.1 0.00 0.00 0.00 82 1011.2
20260904033530 67 328 1.7 6.1 0.00 0.00 0.00 82 1011.1
20260904033030 67 296 2.6 6.1 0.00 0.00 0.00 82 1011.1
20260904032529 67 313 3.5 6.1 0.00 0.00 0.00 82 1011.1
20260904032248 67 358 4.3 6.1 0.00 0.00 0.00 81 1011.0
20260904031529 67 273 1.7 7.0 0.00 0.00 0.00 80 1010.9
20260904031250 67 349 4.3 7.0 0.00 0.00 0.00 81 1011.0
20260904030528 67 290 5.2 7.0 0.00 0.00 0.00 81 1010.9
20260904030028 67 276 3.5 7.0 0.00 0.00 0.00 80 1010.9
20260904025529 67 314 4.3 7.8 0.00 0.00 0.00 80 1010.8
20260904024527 67 335 4.3 7.8 0.00 0.00 0.00 80 1010.9
20260904024027 67 69 4.3 7.8 0.00 0.00 0.00 80 1010.8
20260904023529 67 339 5.2 7.8 0.00 0.00 0.00 80 1010.7
20260904023029 67 342 5.2 7.8 0.00 0.00 0.00 80 1010.8
20260904022747 67 317 2.6 7.0 0.00 0.00 0.00 80 1010.7
20260904022027 68 273 1.7 5.2 0.00 0.00 0.00 82 1010.7
20260904021528 68 289 1.7 6.1 0.00 0.00 0.00 82 1010.7
20260904021028 68 273 0.9 6.1 0.00 0.00 0.00 82 1010.7
20260904020526 69 283 1.7 6.1 0.00 0.00 0.00 82 1010.8
20260904020027 69 263 2.6 6.1 0.00 0.00 0.00 81 1010.8
20260904015527 69 271 2.6 6.1 0.00 0.00 0.00 80 1010.9